Change the Weather History Date:

Friday, July 4, 2014

  Actual Average Record
Temperature  
Mean Temperature 68 °F -  
Max Temperature 80 °F 82 °F 101 °F (1990)
Min Temperature 57 °F 60 °F 41 °F (1967)
Cooling Degree Days 4    
Growing Degree Days 18 (Base 50)    
Moisture  
Dew Point 56 °F    
Average Humidity 62    
Maximum Humidity 82    
Minimum Humidity 42    
Precipitation  
Precipitation 0.00 in - - ()
Sea Level Pressure  
Sea Level Pressure 30.19 in    
Wind  
Wind Speed 3 mph (SSE)    
Max Wind Speed 12 mph    
Max Gust Speed 21 mph    
Visibility 10 miles    
Events      
Averages and records for this station are not official NWS values.
T = Trace of Precipitation, MM = Missing Value Source: NWS Daily Summary

Daily Weather History Graph

Daily Weather History Graph

Search for Another Location

Airport or City:

Trip Planner

Search our weather history database for the weather conditions in past years. The results will help you decide how hot, cold, wet, or windy it might be!

Date:

Astronomy

Jul. 04, 2014 Rise Set
Actual Time 5:36 AM CDT 9:08 PM CDT
Civil Twilight 4:59 AM CDT 9:45 PM CDT
Nautical Twilight 4:10 AM CDT 10:33 PM CDT
Astronomical Twilight 3:06 AM CDT 11:37 PM CDT
Moon 12:53 PM CDT (7/4) 12:12 AM CDT (7/4)
Length of Visible Light 16h 45m
Length of Day
15h 31m
Waxing Crescent, 42% of the Moon is Illuminated
Jul 4
Waxing Crescent
Jul 5
First Quarter
Jul 12
Full
Jul 18
Last Quarter
Jul 26
New

Hourly Weather History & Observations

Time (CDT) Temp. Heat Index Dew Point Humidity Pressure Visibility Wind Dir Wind Speed Gust Speed Precip Events Conditions
12:13 AM 59.0 °F - 51.8 °F 77% 30.22 in 10.0 mi SE 3.5 mph - N/A   Unknown
12:32 AM 60.8 °F - 53.6 °F 77% 30.23 in 10.0 mi Calm Calm - N/A   Unknown
12:53 AM 60.8 °F - 53.6 °F 77% 30.22 in 10.0 mi Calm Calm - N/A   Unknown
1:13 AM 60.8 °F - 53.6 °F 77% 30.22 in 10.0 mi Calm Calm - N/A   Unknown
1:32 AM 60.8 °F - 53.6 °F 77% 30.23 in 10.0 mi Calm Calm - N/A   Scattered Clouds
1:53 AM 60.8 °F - 51.8 °F 72% 30.23 in 10.0 mi Calm Calm - N/A   Scattered Clouds
2:13 AM 62.6 °F - 51.8 °F 68% 30.23 in 10.0 mi Calm Calm - N/A   Scattered Clouds
2:33 AM 62.6 °F - 50.0 °F 63% 30.24 in 10.0 mi Calm Calm - N/A   Scattered Clouds
2:52 AM 62.6 °F - 51.8 °F 68% 30.24 in 10.0 mi Calm Calm - N/A   Unknown
3:13 AM 57.2 °F - 51.8 °F 82% 30.24 in 10.0 mi Calm Calm - N/A   Scattered Clouds
3:33 AM 57.2 °F - 51.8 °F 82% 30.25 in 10.0 mi Calm Calm - N/A   Mostly Cloudy
3:53 AM 60.8 °F - 51.8 °F 72% 30.25 in 10.0 mi Calm Calm - N/A   Unknown
4:13 AM 59.0 °F - 53.6 °F 82% 30.24 in 10.0 mi Calm Calm - N/A   Clear
4:33 AM 57.2 °F - 51.8 °F 82% 30.23 in 10.0 mi SE 4.6 mph - N/A   Unknown
4:53 AM 57.2 °F - 51.8 °F 82% 30.23 in 10.0 mi SSE 3.5 mph - N/A   Unknown
5:12 AM 57.2 °F - 51.8 °F 82% 30.24 in 10.0 mi Calm Calm - N/A   Scattered Clouds
5:33 AM 57.2 °F - 51.8 °F 82% 30.24 in 10.0 mi Calm Calm - N/A   Unknown
5:53 AM 60.8 °F - 51.8 °F 72% 30.25 in 10.0 mi South 3.5 mph - N/A   Unknown
6:12 AM 60.8 °F - 53.6 °F 77% 30.24 in 10.0 mi Calm Calm - N/A   Unknown
6:33 AM 62.6 °F - 53.6 °F 72% 30.25 in 10.0 mi Calm Calm - N/A   Mostly Cloudy
6:53 AM 62.6 °F - 53.6 °F 72% 30.25 in 10.0 mi SE 3.5 mph - N/A   Overcast
7:12 AM 62.6 °F - 55.4 °F 77% 30.25 in 10.0 mi SE 3.5 mph - N/A   Mostly Cloudy
7:33 AM 64.4 °F - 55.4 °F 73% 30.26 in 10.0 mi Calm Calm - N/A   Mostly Cloudy
7:53 AM 64.4 °F - 55.4 °F 73% 30.25 in 10.0 mi SSE 4.6 mph - N/A   Mostly Cloudy
8:12 AM 68.0 °F - 55.4 °F 64% 30.25 in 10.0 mi Calm Calm - N/A   Scattered Clouds
8:33 AM 68.0 °F - 55.4 °F 64% 30.25 in 10.0 mi SSE 3.5 mph - N/A   Mostly Cloudy
8:53 AM 68.0 °F - 55.4 °F 64% 30.25 in 10.0 mi Calm Calm - N/A   Overcast
9:12 AM 66.2 °F - 55.4 °F 68% 30.25 in 10.0 mi South 3.5 mph - N/A   Overcast
9:33 AM 66.2 °F - 55.4 °F 68% 30.26 in 10.0 mi Calm Calm - N/A   Overcast
9:53 AM 68.0 °F - 57.2 °F 68% 30.25 in 10.0 mi SE 3.5 mph - N/A   Overcast
10:12 AM 68.0 °F - 57.2 °F 68% 30.24 in 10.0 mi SE 4.6 mph - N/A   Light Drizzle
10:33 AM 69.8 °F - 57.2 °F 64% 30.23 in 10.0 mi SE 4.6 mph - N/A   Scattered Clouds
10:53 AM 69.8 °F - 55.4 °F 60% 30.23 in 10.0 mi SSE 5.8 mph - N/A   Mostly Cloudy
11:13 AM 69.8 °F - 55.4 °F 60% 30.22 in 10.0 mi SE 8.1 mph - N/A   Mostly Cloudy
11:32 AM 71.6 °F - 55.4 °F 57% 30.21 in 10.0 mi SSE 8.1 mph - N/A   Scattered Clouds
11:53 AM 71.6 °F - 55.4 °F 57% 30.21 in 10.0 mi SE 9.2 mph - N/A   Scattered Clouds
12:13 PM 71.6 °F - 53.6 °F 53% 30.21 in 10.0 mi SSE 8.1 mph - N/A   Mostly Cloudy
12:33 PM 71.6 °F - 53.6 °F 53% 30.21 in 10.0 mi SE 9.2 mph - N/A   Mostly Cloudy
12:53 PM 71.6 °F - 53.6 °F 53% 30.21 in 10.0 mi SE 6.9 mph - N/A   Mostly Cloudy
1:13 PM 73.4 °F - 55.4 °F 53% 30.20 in 10.0 mi SE 10.4 mph - N/A   Scattered Clouds
1:33 PM 73.4 °F - 53.6 °F 50% 30.20 in 10.0 mi SSE 9.2 mph - N/A   Scattered Clouds
1:53 PM 75.2 °F - 53.6 °F 47% 30.19 in 10.0 mi SSE 11.5 mph 17.3 mph N/A   Clear
2:13 PM 75.2 °F - 55.4 °F 50% 30.18 in 10.0 mi SSE 8.1 mph 17.3 mph N/A   Clear
2:33 PM 78.8 °F - 55.4 °F 44% 30.18 in 10.0 mi SSE 10.4 mph 16.1 mph N/A   Clear
2:53 PM 78.8 °F - 55.4 °F 44% 30.17 in 10.0 mi SSE 8.1 mph 20.7 mph N/A   Clear
3:13 PM 80.6 °F 80.5 °F 55.4 °F 42% 30.17 in 10.0 mi SSE 9.2 mph - N/A   Clear
3:33 PM 80.6 °F 80.5 °F 55.4 °F 42% 30.16 in 10.0 mi SSE 11.5 mph 17.3 mph N/A   Clear
3:53 PM 80.6 °F 80.5 °F 55.4 °F 42% 30.16 in 10.0 mi SSE 9.2 mph - N/A   Clear
4:13 PM 80.6 °F 80.8 °F 57.2 °F 45% 30.15 in 10.0 mi South 6.9 mph 17.3 mph N/A   Clear
4:32 PM 80.6 °F 80.8 °F 57.2 °F 45% 30.14 in 10.0 mi SSE 6.9 mph - N/A   Clear
4:53 PM 80.6 °F 80.8 °F 57.2 °F 45% 30.14 in 10.0 mi SSE 9.2 mph - N/A   Clear
5:12 PM 80.6 °F 80.8 °F 57.2 °F 45% 30.14 in 7.0 mi SSE 9.2 mph - N/A   Clear
5:33 PM 78.8 °F - 57.2 °F 47% 30.12 in 10.0 mi SSE 8.1 mph - N/A   Clear
5:53 PM 78.8 °F - 57.2 °F 47% 30.12 in 10.0 mi SSE 8.1 mph - N/A   Clear
6:12 PM 78.8 °F - 57.2 °F 47% 30.11 in 10.0 mi SSE 8.1 mph 16.1 mph N/A   Clear
6:33 PM 78.8 °F - 59.0 °F 51% 30.10 in 10.0 mi SSE 6.9 mph 16.1 mph N/A   Clear
6:53 PM 78.8 °F - 59.0 °F 51% 30.10 in 10.0 mi SSE 9.2 mph - N/A   Clear
7:13 PM 78.8 °F - 59.0 °F 51% 30.09 in 10.0 mi SSE 8.1 mph - N/A   Clear
7:32 PM 78.8 °F - 57.2 °F 47% 30.09 in 10.0 mi SSE 8.1 mph - N/A   Clear
7:53 PM 77.0 °F - 57.2 °F 50% 30.09 in 10.0 mi SSE 6.9 mph - N/A   Clear
8:13 PM 77.0 °F - 59.0 °F 54% 30.08 in 10.0 mi SSE 6.9 mph - N/A   Scattered Clouds
8:53 PM 75.2 °F - 59.0 °F 57% 30.08 in 10.0 mi SSE 5.8 mph - N/A   Clear
9:13 PM 75.2 °F - 60.8 °F 61% 30.08 in 10.0 mi SSE 4.6 mph - N/A   Scattered Clouds
9:33 PM 75.2 °F - 60.8 °F 61% 30.09 in 10.0 mi SSE 4.6 mph - N/A   Scattered Clouds
9:53 PM 73.4 °F - 59.0 °F 61% 30.09 in 10.0 mi SSE 5.8 mph - N/A   Scattered Clouds
10:13 PM 73.4 °F - 60.8 °F 65% 30.10 in 10.0 mi South 5.8 mph - N/A   Clear
10:33 PM 73.4 °F - 60.8 °F 65% 30.10 in 10.0 mi SSE 4.6 mph - N/A   Clear
10:53 PM 73.4 °F - 60.8 °F 65% 30.10 in 10.0 mi SSE 4.6 mph - N/A   Clear
11:13 PM 71.6 °F - 60.8 °F 69% 30.10 in 10.0 mi SSE 6.9 mph - N/A   Clear
11:33 PM 71.6 °F - 62.6 °F 73% 30.11 in 10.0 mi South 3.5 mph - N/A   Clear
11:53 PM 71.6 °F - 62.6 °F 73% 30.10 in 10.0 mi SSE 4.6 mph - N/A   Clear